Temp
56 56 56 56 56 57 57 57 57 57 58 58 59 59 59 59 59 61 69 76 70 66 70 74 76 71 72 73 68 73 74 78 77 69 68 68 66 68 64 71 68 66 64 64 66 61 57 79 79 68 73 79 79 70
55 55 55 56 55 56 57 57 57 57 58 58 59 59 58 59 59 58 65 74 76 66 67 75 76 78 76 76 74 75 74 75 78 72 72 73 64 69 63 56 76 65 70 66 68 67 75 79 77 81 82 78 79 79
55 55 55 55 56 56 57 57 57 57 57 58 58 58 58 58 59 59 64 67 69 66 69 73 74 83 85 84 86 70 78 79 75 82 74 69 63 63 54 63 63 72 79 71 70 74 77 80 83 83 82 81 82 83
55 55 55 55 56 56 56 57 57 57 57 58 58 58 58 58 58 58 60 67 66 67 62 75 90 85 90 88 84 84 79 82 82 78 73 71 66 70 67 72 71 76 77 73 72 76 77 79 82 82 83 83 82 83
54 54 55 55 56 56 56 57 57 57 57 57 58 58 58 58 58 60 64 66 69 61 60 66 77 85 90 87 84 84 82 78 76 73 72 68 73 74 74 75 71 78 74 70 68 77 75 75 67 64 66 78 81 81
54 54 55 55 55 56 56 57 57 57 57 57 57 58 58 58 57 59 58 68 72 69 62 62 83 82 86 87 83 81 80 79 79 75 74 77 80 72 67 65 75 79 82 81 75 81 81 81 67 60 58 61 81 80
54 54 54 55 55 56 56 56 56 56 56 57 57 57 57 56 59 56 55 61 60 68 62 64 70 81 84 84 83 81 82 80 79 75 74 75 73 71 64 63 74 77 79 80 82 80 77 81 73 61 62 72 78 81
54 54 54 54 55 55 56 56 56 56 56 56 57 57 56 56 55 58 69 60 63 65 69 63 67 73 83 76 74 82 77 78 76 75 76 73 75 72 64 74 76 79 79 80 81 82 81 73 68 67 64 79 77 78
54 54 54 54 54 55 55 55 56 56 56 56 56 56 59 55 56 64 62 61 67 64 58 68 64 57 72 77 79 78 79 68 78 71 72 71 67 59 70 74 75 77 76 77 81 81 81 65 59 57 59 68 76 76
54 54 54 54 54 55 55 55 55 56 55 55 56 56 54 63 60 62 62 61 61 65 66 62 72 64 75 74 73 73 75 68 53 69 76 70 68 74 75 77 77 79 79 80 77 75 78 76 62 57 59 76 77 78
54 54 54 54 54 55 55 55 55 55 55 60 57 59 64 59 66 64 56 56 61 61 68 69 70 67 79 65 68 66 68 70 59 59 66 60 63 73 80 80 81 82 81 81 82 82 81 80 78 69 77 78 77 78
54 54 55 54 54 55 55 55 55 57 57 54 57 63 69 62 59 53 54 61 60 57 71 69 71 73 75 77 55 67 62 61 59 73 65 60 70 72 79 80 81 82 81 81 83 82 82 81 79 62 73 78 79 77
54 54 54 54 54 55 55 55 55 55 56 64 58 58 57 58 43 51 52 57 61 68 72 70 68 73 74 75 61 57 57 53 61 58 58 66 73 77 78 80 81 82 82 82 82 83 83 82 76 70 72 77 80 77
53 54 54 54 54 55 55 55 55 57 58 53 53 40 51 53 58 62 62 64 67 72 69 74 69 69 72 67 65 48 54 56 47 48 60 72 72 76 79 80 81 80 81 82 81 82 81 81 80 79 80 81 79 76
53 54 54 54 54 54 55 55 55 59 52 50 52 43 54 64 65 68 65 64 74 77 71 70 71 70 66 63 67 62 57 56 59 61 68 70 76 76 77 79 80 81 81 81 82 81 81 81 81 80 81 81 80 77
54 54 56 55 55 54 54 54 56 57 53 52 52 51 61 58 62 60 67 68 68 72 73 69 62 62 61 64 63 61 56 52 53 59 56 73 75 77 77 79 81 82 81 81 81 81 81 81 80 81 82 81 80 78
52 57 55 54 55 54 53 53 54 52 54 53 54 63 62 62 59 65 66 57 55 62 64 61 55 56 69 62 61 67 64 65 69 64 68 57 68 75 77 79 80 81 81 81 81 80 80 82 82 80 77 78 81 78
53 60 55 54 55 55 54 51 51 53 50 57 57 62 65 67 59 60 68 62 59 57 59 57 66 59 59 59 61 70 72 74 75 72 65 59 57 57 77 78 79 79 80 80 81 80 80 79 78 79 79 79 80 79
56 55 54 54 55 53 50 53 56 50 56 61 63 65 65 63 69 70 70 60 57 68 64 60 57 59 61 67 67 67 70 69 65 65 65 60 61 61 74 78 79 79 79 79 79 80 81 79 81 82 82 81 79 81
52 54 54 54 54 50 47 52 60 55 55 62 63 61 61 63 64 69 69 64 68 59 59 59 61 65 65 68 68 69 68 69 61 56 54 54 57 68 75 78 80 81 80 79 79 70 81 81 82 83 84 82 81 80
52 53 54 53 51 51 48 48 48 56 58 57 63 56 58 62 61 64 66 69 66 62 60 66 68 71 73 71 70 71 66 69 61 61 54 53 56 62 79 80 80 81 82 80 79 78 68 81 82 84 84 83 85 85
56 54 54 53 51 49 47 59 56 59 54 60 61 62 59 58 58 59 65 64 63 66 68 69 70 71 71 68 68 68 64 58 66 73 62 66 72 76 74 68 81 79 81 82 81 80 80 82 84 84 84 84 78 86
52 53 51 51 47 44 48 61 52 55 52 57 61 56 59 57 62 68 59 65 66 72 72 73 72 72 69 66 66 70 66 68 73 74 76 78 79 79 80 78 80 77 72 70 70 70 78 70 75 79 75 76 79 81
51 49 46 44 44 43 56 52 56 54 56 55 56 54 57 59 65 59 59 64 68 66 67 69 73 70 72 70 72 73 74 68 73 77 78 78 77 77 72 75 79 79 77 77 69 71 68 72 64 63 64 76 70 59
41 41 45 37 50 48 49 52 53 53 51 54 51 54 55 57 55 57 57 59 61 62 65 64 69 73 70 66 73 76 77 77 75 75 73 79 68 75 77 71 72 73 77 74 71 74 73 71 71 68 68 68 69 73
37 47 43 51 52 51 54 51 51 50 50 49 48 52 55 53 53 53 52 57 59 62 66 68 60 64 67 73 69 75 76 81 79 74 74 78 72 76 70 66 63 59 65 71 70 70 72 74 74 73 70 64 54 60
38 48 56 63 59 57 55 57 57 52 50 51 51 49 47 46 47 51 58 59 58 58 60 58 58 61 60 72 75 76 76 77 69 69 75 77 77 76 74 67 58 60 66 69 70 71 70 70 71 72 72 73 71 67
53 56 51 56 56 58 53 53 52 51 54 55 54 50 48 46 48 57 61 64 62 63 68 76 59 58 58 76 78 77 77 79 78 79 77 77 78 80 79 79 77 53 73 75 75 74 73 73 72 72 72 72 72 73
53 59 59 53 55 56 54 52 52 57 60 54 47 49 49 54 56 56 58 65 71 73 73 75 70 78 80 80 77 76 78 80 75 70 69 70 71 74 79 79 76 75 75 75 53 63 72 72 71 70 68 70 72 75
55 62 55 55 51 49 55 57 53 56 54 54 54 55 54 57 61 57 55 57 59 66 72 70 62 63 68 68 74 68 69 77 77 67 69 69 73 79 70 71 79 77 80 80 78 73 48 61 63 68 68 71 72 72
61 59 55 55 52 54 53 53 52 52 52 52 52 49 54 57 67 74 66 63 68 60 60 59 64 72 73 69 67 67 66 64 66 74 78 80 80 78 77 78 80 79 75 71 78 79 74 72 75 76 75 74 72 68
58 54 51 46 47 56 61 58 56 52 53 51 54 57 56 58 61 74 79 75 76 76 65 68 71 75 77 78 75 78 63 79 76 76 73 74 73 73 74 76 79 80 79 78 78 74 67 70 72 74 74 69 67 69
57 56 54 53 57 60 66 61 53 51 54 53 56 58 54 60 60 74 81 81 76 80 79 80 82 81 80 80 79 79 70 75 61 48 48 48 47 55 67 74 74 74 73 73 75 76 75 75 68 66 69 73 70 62
MSLP
1022.19 1022.11 1021.90 1021.72 1021.46 1021.18 1020.86 1020.60 1020.44 1020.13 1019.76 1019.46 1019.10 1018.95 1018.75 1018.85 1018.80 1018.27 1016.01 1015.04 1014.63 1013.02 1010.88 1010.13 1009.29 1008.63 1007.98 1007.20 1006.37 1005.44 1005.10 1004.55 1004.14 1004.48 1004.75 1004.95 1005.38 1005.85 1006.32 1005.46 1005.22 1005.27 1005.29 1004.99 1004.85 1004.85 1004.86 1004.97 1004.66 1005.12 1005.75 1005.76 1006.28 1007.94
1021.97 1021.96 1021.82 1021.58 1021.29 1020.99 1020.68 1020.39 1020.23 1019.87 1019.45 1019.19 1018.95 1018.71 1018.69 1018.77 1018.73 1018.53 1016.32 1014.88 1014.47 1014.15 1011.71 1010.42 1009.83 1009.18 1008.75 1008.33 1007.76 1006.52 1005.54 1004.96 1004.60 1004.67 1005.13 1005.37 1006.17 1006.62 1006.54 1006.48 1005.14 1005.21 1005.16 1005.02 1005.23 1005.04 1005.36 1005.48 1005.69 1005.80 1005.95 1006.25 1006.54 1007.14
1021.75 1021.66 1021.51 1021.27 1021.00 1020.63 1020.53 1020.28 1020.08 1019.62 1019.23 1018.99 1018.73 1018.64 1018.60 1018.63 1018.54 1018.39 1017.12 1016.04 1015.13 1013.52 1011.14 1009.25 1007.44 1006.90 1007.48 1007.52 1007.75 1007.44 1005.85 1006.03 1006.02 1005.76 1005.44 1006.42 1006.90 1007.70 1007.64 1006.55 1006.54 1005.08 1004.58 1004.78 1005.17 1005.10 1005.12 1005.21 1005.32 1005.97 1006.44 1006.59 1006.76 1006.93
1021.49 1021.40 1021.26 1021.07 1020.67 1020.36 1020.13 1020.04 1019.77 1019.45 1019.18 1018.86 1018.54 1018.48 1018.50 1018.42 1018.33 1018.25 1017.37 1016.33 1015.64 1013.87 1011.18 1006.45 1005.16 1005.09 1005.75 1006.26 1006.95 1007.13 1007.00 1006.84 1006.50 1006.49 1006.13 1006.28 1006.72 1007.00 1006.67 1005.39 1005.13 1004.44 1004.59 1004.52 1004.44 1004.70 1005.06 1005.62 1005.96 1006.10 1006.56 1006.84 1007.45 1007.38
1021.11 1020.98 1020.82 1020.60 1020.32 1020.15 1019.94 1019.77 1019.45 1019.20 1019.00 1018.77 1018.41 1018.38 1018.36 1018.26 1018.12 1017.76 1016.93 1016.14 1015.63 1015.16 1011.79 1008.73 1007.15 1005.65 1004.99 1005.34 1005.86 1006.41 1006.56 1006.57 1006.36 1006.09 1005.88 1006.24 1005.98 1005.75 1005.95 1005.19 1004.93 1004.77 1004.43 1004.42 1004.38 1004.65 1005.16 1006.13 1007.62 1007.53 1008.48 1007.44 1007.27 1007.55
1020.83 1020.65 1020.41 1020.21 1020.00 1019.74 1019.73 1019.51 1019.19 1019.05 1018.92 1018.61 1018.35 1018.25 1018.21 1018.12 1017.95 1017.43 1015.93 1014.68 1014.81 1014.77 1013.17 1009.22 1005.50 1004.52 1004.20 1004.14 1005.15 1005.48 1006.04 1006.03 1005.92 1005.88 1005.62 1005.64 1005.76 1006.39 1005.82 1005.38 1005.18 1004.84 1004.41 1004.38 1004.63 1004.83 1005.12 1006.17 1007.93 1008.18 1009.70 1009.14 1007.16 1007.80
1020.49 1020.29 1020.08 1019.87 1019.76 1019.46 1019.36 1019.26 1018.98 1018.93 1018.66 1018.45 1018.29 1018.17 1018.07 1017.99 1017.61 1017.05 1016.49 1015.79 1015.83 1015.13 1013.13 1009.07 1005.52 1003.92 1004.17 1004.21 1004.43 1004.99 1005.29 1005.37 1005.47 1005.62 1005.47 1005.29 1005.73 1006.05 1006.27 1005.40 1004.98 1004.83 1004.63 1004.57 1004.76 1005.17 1005.34 1006.14 1007.86 1009.07 1009.27 1008.06 1006.46 1008.07
1020.14 1019.97 1019.77 1019.72 1019.49 1019.13 1019.03 1018.99 1018.84 1018.61 1018.44 1018.27 1018.18 1018.03 1017.91 1017.79 1017.46 1016.50 1014.10 1014.99 1015.80 1014.48 1011.84 1008.74 1005.86 1004.26 1003.84 1003.75 1003.91 1004.38 1004.62 1005.07 1005.25 1005.22 1005.09 1005.09 1005.28 1005.59 1005.10 1004.55 1004.61 1004.50 1004.34 1004.28 1004.46 1004.84 1005.29 1006.65 1007.61 1008.49 1008.96 1007.16 1008.02 1008.38
1019.66 1019.57 1019.42 1019.36 1019.19 1018.91 1018.84 1018.68 1018.52 1018.43 1018.28 1018.08 1017.97 1017.85 1017.42 1017.31 1016.14 1014.63 1014.36 1014.59 1015.03 1014.15 1011.44 1007.81 1005.77 1005.43 1005.30 1003.65 1003.41 1003.79 1003.90 1004.33 1004.51 1004.54 1004.55 1005.29 1005.13 1004.73 1004.44 1004.06 1004.11 1004.29 1004.33 1004.09 1004.09 1004.46 1004.89 1006.65 1007.73 1009.66 1009.75 1009.91 1008.25 1008.27
1019.19 1019.17 1019.12 1019.02 1018.80 1018.61 1018.52 1018.37 1018.31 1018.24 1017.96 1017.85 1017.83 1017.01 1015.72 1014.88 1014.68 1014.92 1015.05 1014.25 1013.78 1012.08 1010.75 1008.13 1006.14 1005.17 1004.76 1003.88 1003.38 1003.69 1003.82 1004.50 1005.02 1004.16 1004.01 1003.74 1003.47 1003.39 1003.33 1003.27 1003.50 1003.67 1003.77 1003.98 1003.77 1004.16 1004.53 1005.76 1007.85 1009.60 1009.45 1007.66 1007.98 1008.18
1018.79 1018.79 1018.70 1018.56 1018.45 1018.35 1018.28 1018.15 1018.17 1017.96 1017.27 1017.14 1016.37 1015.25 1014.68 1014.80 1014.35 1013.14 1012.57 1011.82 1010.62 1008.94 1007.48 1006.34 1005.82 1004.77 1004.15 1004.26 1003.94 1004.35 1004.41 1004.20 1004.78 1004.68 1003.70 1003.53 1003.13 1002.07 1001.98 1002.20 1002.68 1003.01 1003.17 1003.25 1003.42 1003.77 1004.41 1005.30 1005.45 1006.57 1006.42 1006.86 1007.74 1008.39
1018.37 1018.26 1018.15 1018.15 1018.14 1018.13 1018.03 1018.04 1018.09 1017.81 1017.37 1017.55 1017.29 1015.65 1014.15 1013.57 1012.83 1012.14 1010.62 1009.43 1008.26 1007.15 1004.99 1004.50 1004.35 1004.49 1004.20 1004.24 1005.29 1005.03 1004.90 1006.50 1004.48 1003.32 1003.09 1002.48 1001.79 1001.85 1001.69 1001.94 1002.33 1002.56 1002.80 1002.82 1003.05 1003.48 1004.20 1004.86 1004.84 1007.11 1006.76 1006.80 1007.75 1008.43
1017.89 1017.76 1017.76 1017.82 1017.88 1017.83 1017.85 1017.95 1017.92 1017.84 1017.29 1016.13 1016.36 1014.61 1013.12 1012.04 1011.33 1009.95 1008.12 1006.97 1006.05 1005.17 1004.36 1004.31 1003.98 1004.09 1004.30 1004.42 1006.07 1006.50 1006.14 1006.31 1006.11 1005.27 1003.52 1002.03 1001.26 1001.34 1001.46 1001.68 1001.96 1002.29 1002.58 1002.58 1002.76 1003.31 1003.99 1004.66 1005.60 1005.90 1006.92 1007.26 1007.42 1008.06
1017.49 1017.47 1017.50 1017.53 1017.54 1017.59 1017.73 1017.78 1017.83 1017.71 1017.27 1016.08 1014.85 1013.93 1011.91 1009.93 1008.57 1007.15 1006.40 1005.78 1005.80 1004.71 1004.64 1003.75 1004.05 1004.34 1004.34 1004.59 1004.95 1007.78 1007.29 1006.66 1006.74 1005.77 1002.97 1001.21 1001.05 1001.12 1001.36 1001.66 1001.79 1002.08 1002.33 1002.48 1002.85 1003.27 1003.80 1004.43 1005.02 1005.71 1006.27 1006.70 1007.17 1008.00
1017.12 1017.11 1017.05 1017.06 1017.13 1017.37 1017.55 1017.66 1017.76 1017.46 1016.97 1015.81 1014.65 1012.67 1010.25 1008.33 1007.59 1006.68 1006.64 1006.38 1004.96 1004.77 1004.83 1004.38 1004.14 1004.37 1004.53 1004.74 1004.24 1004.83 1005.21 1004.92 1004.92 1003.92 1003.37 1002.10 1001.61 1001.47 1001.54 1001.62 1001.64 1001.87 1002.21 1002.44 1002.84 1003.39 1003.79 1004.26 1004.62 1005.12 1005.69 1006.34 1006.97 1007.91
1016.83 1016.72 1016.25 1016.37 1016.66 1017.08 1017.34 1017.58 1017.49 1017.02 1016.33 1015.25 1013.86 1011.80 1009.56 1008.58 1007.47 1007.32 1006.47 1006.22 1006.00 1005.19 1005.00 1005.09 1005.29 1004.51 1004.45 1004.08 1003.08 1003.13 1004.13 1004.73 1005.27 1005.79 1005.26 1003.42 1002.69 1002.19 1002.00 1001.83 1001.68 1001.74 1002.05 1002.38 1002.83 1003.39 1003.80 1004.10 1004.54 1005.02 1005.53 1006.11 1006.76 1007.56
1016.67 1015.74 1015.41 1016.01 1016.50 1016.84 1017.17 1017.25 1016.74 1016.17 1014.72 1013.24 1011.63 1010.19 1009.46 1008.59 1008.25 1007.48 1007.59 1007.86 1007.84 1007.11 1005.64 1005.69 1005.52 1004.74 1003.34 1003.12 1002.67 1002.29 1002.31 1002.69 1003.71 1004.80 1004.79 1004.71 1004.31 1003.48 1002.99 1002.47 1002.16 1002.00 1002.10 1002.31 1002.66 1003.24 1003.71 1004.09 1004.49 1004.95 1005.37 1005.83 1006.21 1006.90
1015.97 1015.14 1015.77 1016.17 1016.42 1016.67 1016.99 1016.87 1015.91 1014.54 1013.03 1011.63 1010.31 1009.16 1008.35 1007.55 1007.74 1007.84 1007.36 1007.94 1008.46 1006.99 1006.78 1006.45 1005.26 1004.82 1003.50 1002.73 1002.42 1002.22 1002.42 1002.69 1003.23 1004.19 1005.50 1005.46 1006.50 1005.70 1003.75 1002.99 1002.73 1002.54 1002.30 1002.42 1002.59 1003.07 1003.56 1003.89 1004.30 1004.78 1005.23 1005.68 1006.03 1006.45
1015.63 1015.54 1015.88 1016.16 1016.25 1016.25 1016.13 1015.62 1014.91 1013.23 1011.22 1010.16 1009.35 1008.57 1008.03 1007.59 1007.04 1006.96 1006.95 1007.39 1008.07 1007.09 1006.81 1006.54 1005.88 1004.50 1003.86 1003.42 1003.39 1003.60 1003.68 1004.18 1004.72 1005.33 1005.80 1006.00 1005.59 1005.07 1003.83 1003.08 1002.94 1002.71 1002.52 1002.58 1002.63 1002.85 1003.15 1003.68 1003.86 1004.19 1004.52 1005.06 1005.63 1005.93
1016.11 1015.85 1016.00 1016.26 1016.47 1016.26 1015.70 1014.32 1013.69 1012.34 1010.21 1008.66 1008.18 1007.74 1007.41 1007.05 1006.96 1006.41 1006.13 1006.69 1006.43 1006.72 1006.43 1005.75 1005.01 1004.42 1004.09 1004.03 1004.38 1004.54 1004.80 1004.89 1005.17 1004.43 1005.67 1006.31 1005.14 1005.25 1003.41 1002.73 1002.26 1002.13 1002.40 1002.57 1002.71 1002.78 1002.86 1003.19 1003.54 1003.61 1003.71 1004.21 1004.64 1005.13
1016.07 1015.94 1016.19 1016.38 1016.36 1016.30 1015.46 1014.20 1013.26 1011.88 1010.13 1009.07 1007.59 1007.43 1007.15 1006.83 1006.53 1005.93 1005.35 1005.48 1005.37 1005.22 1005.06 1004.73 1004.29 1003.98 1003.76 1004.20 1004.64 1004.68 1004.98 1004.77 1004.87 1005.09 1006.23 1007.17 1005.34 1003.59 1002.28 1001.98 1002.06 1001.88 1001.50 1002.01 1002.41 1002.54 1002.76 1002.47 1002.74 1003.07 1003.17 1003.43 1003.51 1003.76
1015.44 1015.76 1015.91 1016.08 1015.71 1015.70 1014.90 1013.05 1012.02 1010.87 1010.33 1008.47 1007.37 1006.87 1006.50 1006.05 1005.74 1005.64 1005.46 1004.67 1004.30 1004.14 1003.89 1003.72 1003.54 1003.52 1003.49 1003.90 1004.22 1004.45 1004.77 1005.15 1005.18 1004.28 1003.85 1003.82 1003.48 1002.59 1002.58 1002.39 1001.68 1001.50 1001.10 1001.17 1001.65 1001.99 1002.18 1002.20 1002.10 1002.39 1002.66 1002.58 1002.98 1003.10
1015.80 1015.78 1015.61 1015.48 1015.28 1014.61 1013.03 1011.58 1011.28 1010.15 1009.03 1007.44 1006.77 1006.46 1005.47 1005.36 1005.01 1004.55 1004.28 1003.61 1003.17 1002.78 1002.73 1002.65 1002.70 1003.13 1003.29 1003.52 1003.77 1003.97 1004.08 1004.15 1003.69 1003.52 1003.03 1002.77 1002.61 1002.51 1002.29 1002.53 1002.16 1002.01 1002.09 1002.16 1002.29 1002.34 1001.97 1001.74 1002.09 1002.45 1002.74 1002.84 1003.08 1003.44
1016.01 1015.60 1015.16 1014.76 1014.49 1013.27 1011.78 1010.83 1010.15 1009.37 1008.51 1007.60 1006.60 1005.96 1005.42 1005.04 1004.34 1004.38 1003.53 1002.75 1002.36 1002.31 1002.28 1002.17 1002.21 1002.46 1002.55 1002.68 1002.66 1002.63 1002.83 1003.12 1003.18 1002.75 1002.51 1002.25 1002.14 1002.12 1002.47 1002.53 1002.65 1002.53 1002.65 1002.81 1003.30 1003.42 1003.83 1003.90 1003.52 1003.66 1003.61 1003.90 1004.35 1004.76
1015.71 1015.19 1014.52 1013.55 1012.86 1012.06 1010.41 1009.28 1008.66 1008.37 1007.85 1007.24 1007.03 1006.25 1005.53 1004.90 1004.49 1003.93 1003.21 1002.93 1002.63 1002.62 1002.23 1001.83 1001.74 1001.76 1001.78 1001.82 1001.57 1001.35 1001.59 1001.79 1001.78 1001.66 1001.78 1001.75 1002.03 1001.99 1002.24 1003.27 1003.62 1004.29 1003.64 1003.41 1003.55 1003.87 1004.45 1004.61 1004.66 1005.15 1005.49 1005.39 1005.68 1005.33
1014.55 1013.36 1012.67 1010.95 1010.27 1009.93 1008.70 1007.90 1007.92 1008.17 1008.26 1007.64 1007.44 1007.06 1006.54 1005.89 1004.90 1004.10 1004.21 1003.99 1003.57 1002.99 1002.73 1002.47 1002.90 1002.61 1001.98 1001.34 1001.27 1001.01 1000.96 1001.02 1001.34 1001.77 1001.94 1001.85 1002.46 1001.95 1002.82 1003.63 1004.38 1004.88 1004.97 1004.71 1004.31 1004.12 1003.98 1003.86 1003.84 1003.88 1004.22 1004.39 1005.08 1005.26
1012.95 1011.15 1010.07 1009.34 1008.90 1008.82 1008.48 1007.97 1007.88 1008.12 1007.81 1007.14 1007.06 1007.35 1007.26 1006.31 1005.16 1004.90 1004.44 1004.03 1003.83 1003.21 1002.80 1002.94 1003.25 1003.38 1003.03 1001.21 1001.19 1001.27 1001.50 1001.73 1002.25 1002.84 1002.67 1002.66 1002.82 1003.09 1003.31 1003.91 1004.60 1004.85 1005.37 1005.13 1005.04 1004.82 1004.59 1004.33 1004.08 1003.87 1003.77 1003.70 1004.17 1004.47
1010.89 1009.62 1008.76 1008.34 1008.16 1008.04 1007.99 1007.84 1007.81 1007.62 1007.36 1007.63 1007.64 1007.17 1006.75 1006.56 1005.78 1004.95 1004.27 1003.95 1003.05 1002.90 1002.11 1001.58 1002.96 1002.99 1002.78 1001.46 1001.56 1001.93 1002.03 1002.27 1002.47 1002.45 1002.79 1003.05 1003.10 1002.94 1003.25 1003.46 1004.08 1004.66 1004.50 1004.47 1004.57 1004.69 1004.58 1004.46 1004.36 1004.19 1004.09 1003.80 1003.85 1004.03
1009.63 1008.69 1008.13 1007.88 1007.74 1007.65 1007.81 1008.00 1007.95 1007.80 1007.93 1008.31 1008.32 1007.56 1006.93 1006.20 1004.89 1005.20 1004.74 1003.64 1002.85 1001.96 1001.75 1001.65 1002.32 1001.71 1001.49 1001.64 1001.82 1002.13 1002.16 1002.00 1002.35 1002.73 1002.81 1002.77 1002.98 1002.92 1003.08 1003.19 1003.62 1003.89 1003.98 1004.02 1004.50 1004.28 1004.26 1004.46 1004.62 1004.78 1004.57 1004.10 1003.68 1003.24
1008.23 1007.72 1007.54 1007.50 1007.56 1007.43 1007.26 1007.73 1008.15 1008.47 1008.75 1008.78 1008.61 1008.01 1007.07 1005.57 1005.03 1004.84 1003.70 1003.03 1003.16 1002.46 1002.58 1002.87 1002.96 1002.52 1002.28 1002.14 1001.94 1003.01 1003.42 1003.28 1003.14 1003.55 1002.95 1002.47 1002.57 1002.65 1002.96 1003.20 1002.49 1002.63 1002.46 1002.48 1002.98 1003.71 1004.49 1004.42 1004.21 1004.36 1004.11 1003.65 1003.51 1003.37
1007.25 1007.08 1007.18 1007.06 1007.00 1007.10 1007.25 1007.64 1008.02 1008.45 1008.44 1008.29 1008.11 1007.89 1006.79 1005.76 1003.19 1003.04 1003.04 1002.72 1002.99 1003.79 1003.34 1003.41 1003.13 1002.82 1002.67 1003.04 1003.14 1003.47 1004.18 1004.44 1004.24 1004.07 1003.49 1002.89 1002.85 1003.18 1003.15 1002.78 1002.48 1002.48 1002.39 1002.64 1002.74 1002.24 1002.79 1003.08 1002.59 1002.27 1002.32 1002.36 1002.70 1003.09
1006.89 1006.99 1007.03 1006.91 1006.60 1006.22 1006.25 1006.32 1006.57 1006.97 1006.89 1007.14 1006.80 1006.18 1005.73 1005.41 1003.75 1002.13 1001.88 1001.66 1001.69 1002.31 1002.76 1002.99 1003.00 1002.69 1002.99 1003.13 1003.19 1003.35 1003.56 1003.81 1004.32 1004.40 1004.68 1004.63 1004.60 1004.55 1004.21 1003.71 1003.06 1002.54 1002.15 1002.02 1001.92 1001.88 1002.35 1002.41 1001.92 1001.96 1002.03 1002.18 1002.58 1003.02
1006.07 1006.15 1006.21 1006.01 1004.73 1003.52 1002.82 1004.08 1005.12 1006.04 1006.17 1005.85 1005.51 1005.34 1004.85 1004.23 1003.21 1002.40 1002.14 1001.97 1001.93 1001.49 1001.68 1001.83 1002.17 1002.58 1002.87 1002.90 1003.18 1003.22 1003.45 1004.43 1005.07 1005.32 1005.57 1005.74 1005.77 1005.53 1005.01 1004.32 1004.00 1003.73 1003.37 1002.90 1002.35 1001.83 1001.40 1001.21 1001.37 1001.91 1002.51 1001.45 1001.99 1003.03
Wind_Speed
9 10 10 10 11 10 11 12 12 12 11 11 10 10 5 5 7 6 8 8 6 8 17 20 17 14 12 9 8 9 9 8 8 9 9 8 3 2 5 9 5 7 8 10 7 11 11 12 5 4 6 6 8 6
10 11 11 12 12 13 11 11 11 10 10 9 9 5 4 6 7 5 7 6 4 7 11 20 20 18 17 14 9 7 9 3 3 5 7 6 3 6 6 8 9 10 10 8 9 6 8 3 5 3 4 6 6 2
10 10 11 12 12 12 12 12 12 10 9 7 6 6 6 7 7 6 7 8 8 10 14 16 16 20 19 18 11 6 3 3 10 8 4 3 2 2 5 5 3 22 8 8 9 11 10 9 8 4 5 7 6 5
11 12 12 12 12 12 11 11 11 9 8 8 7 6 6 7 7 7 7 6 8 7 7 6 3 7 14 17 18 16 14 12 4 2 1 3 3 7 15 9 8 9 7 7 9 9 12 13 13 9 8 5 6 10
10 11 11 11 11 12 10 9 8 8 7 7 6 7 7 8 8 8 9 9 8 6 7 11 19 17 9 11 16 18 14 11 5 4 4 8 9 4 5 7 6 8 10 8 9 9 5 8 17 22 19 8 4 8
10 11 11 10 11 12 10 8 7 8 8 8 7 7 8 8 6 5 4 6 7 6 6 6 6 12 12 13 14 15 11 10 8 9 7 7 2 1 4 9 10 12 11 9 10 11 12 11 15 13 9 30 6 8
11 11 11 11 12 11 8 8 7 8 8 8 8 8 7 7 5 5 4 3 10 4 6 6 6 12 13 9 9 10 13 8 8 8 10 8 5 3 4 13 8 9 12 12 10 13 10 9 8 18 27 25 12 10
11 10 10 11 12 9 8 7 7 8 8 8 8 8 8 7 10 8 9 14 7 6 7 6 9 10 11 8 8 10 10 9 9 9 9 7 3 7 10 9 6 7 11 10 11 11 13 8 13 17 14 5 8 9
11 11 11 11 10 9 8 7 8 9 8 8 9 9 4 4 4 2 6 13 7 5 6 6 10 2 9 8 7 9 8 7 6 10 9 7 9 5 10 8 8 10 12 14 9 13 9 13 15 8 20 26 9 10
10 10 10 10 9 9 7 7 8 10 9 8 5 4 4 2 14 7 3 6 7 6 7 9 12 6 4 8 7 7 7 5 4 9 8 11 11 13 15 16 12 12 13 14 9 11 7 7 17 19 27 11 8 10
10 10 10 9 8 7 7 6 8 10 9 4 4 2 2 5 5 5 4 5 7 6 8 9 12 10 5 2 4 3 3 4 12 4 9 4 12 14 14 12 7 5 9 12 9 10 3 5 10 15 16 14 8 11
10 10 9 9 7 8 6 6 7 4 2 4 6 7 5 5 5 5 5 5 6 5 5 8 8 10 7 1 5 5 4 3 6 5 5 10 11 9 8 8 6 5 8 12 11 8 5 7 2 13 3 12 11 11
9 9 7 8 7 7 6 6 6 7 12 6 5 5 4 6 4 7 9 6 6 7 4 3 3 3 5 4 7 1 2 2 3 7 4 6 8 9 8 6 4 5 8 12 10 8 7 8 15 14 14 9 11 12
8 8 9 8 7 7 6 6 5 6 4 4 4 4 5 6 7 9 10 3 4 4 8 4 4 4 5 5 3 5 6 3 2 3 14 12 12 11 8 7 6 7 7 9 10 10 8 9 9 14 12 10 11 12
8 9 9 8 8 8 7 6 5 4 2 4 4 5 7 9 8 6 7 11 4 1 4 4 2 4 5 4 4 2 4 4 3 5 6 5 7 9 7 7 6 7 8 9 10 9 9 11 10 11 12 11 10 12
9 5 7 8 9 10 8 6 4 3 3 4 6 6 9 8 10 8 8 7 8 5 9 4 5 3 7 6 6 7 5 5 3 3 7 6 4 4 5 6 6 6 8 8 10 9 9 10 9 9 11 12 11 14
6 4 8 11 8 7 11 3 3 5 6 6 7 10 11 11 9 8 7 3 9 14 2 3 5 4 4 9 14 9 12 7 9 11 14 7 10 3 4 3 2 5 6 7 8 8 8 8 10 9 10 10 13 13
5 5 10 11 10 7 4 3 3 4 7 7 10 10 11 8 4 5 9 2 5 3 3 3 4 5 4 6 4 5 7 9 8 9 6 13 9 22 10 2 2 3 6 6 7 8 8 9 9 8 8 7 7 6
3 4 10 11 2 2 4 5 5 6 9 8 10 11 10 8 8 7 8 5 7 7 1 2 4 7 8 9 5 4 7 5 4 6 5 1 8 18 10 6 6 5 6 7 7 8 9 10 9 10 10 10 10 9
5 3 8 7 2 1 4 4 4 5 6 6 6 9 7 7 8 12 7 3 4 1 5 6 7 8 6 2 4 4 7 4 2 6 9 8 13 18 8 7 8 8 7 8 7 8 8 9 9 10 10 10 10 11
4 4 4 5 4 2 3 3 3 5 6 6 7 3 6 6 7 10 9 7 9 10 10 10 10 10 7 2 3 4 3 5 3 5 5 9 11 12 2 5 7 10 8 9 9 8 9 8 9 9 10 10 10 10
2 8 2 2 3 3 5 7 6 4 4 8 9 8 6 7 7 6 7 10 11 10 12 12 10 9 6 7 6 6 3 4 16 7 7 8 7 2 2 6 2 5 7 8 9 9 9 9 8 8 9 9 10 10
3 1 3 4 3 4 7 5 5 5 5 4 3 5 5 3 7 6 6 10 11 10 9 10 8 8 8 5 8 12 11 13 7 8 7 5 5 5 3 3 6 6 8 7 8 7 1 6 7 4 4 5 2 4
0 2 3 4 5 5 5 5 5 4 4 6 6 9 10 4 1 3 8 9 8 4 7 10 8 8 9 12 10 9 8 4 9 10 9 8 6 4 2 1 2 3 5 6 5 5 8 11 5 6 12 13 7 10
2 4 5 5 6 6 6 5 5 4 5 5 4 6 4 4 3 5 6 2 4 3 2 3 4 9 8 5 9 10 11 10 9 8 3 3 4 4 5 8 3 9 7 5 5 5 1 7 6 4 4 5 14 12
4 7 7 7 5 7 5 4 3 5 6 3 6 2 4 4 5 2 2 5 3 2 4 3 1 5 5 4 3 1 2 3 2 4 1 3 5 4 3 2 4 5 7 6 5 8 10 8 7 9 6 2 3 9
4 6 7 7 5 4 4 4 3 4 4 4 2 1 2 5 2 2 2 1 4 4 3 2 5 4 7 1 5 4 3 4 6 6 3 3 4 5 4 5 8 8 9 8 7 7 8 9 10 9 9 6 8 9
6 5 8 6 7 6 9 8 4 3 3 4 3 4 3 5 3 3 2 3 10 10 8 8 11 6 9 3 7 5 5 4 5 5 5 5 5 3 2 5 6 7 5 4 4 4 6 6 7 8 10 10 6 6
7 6 7 9 9 5 3 3 3 2 1 1 2 3 3 3 3 1 6 6 8 7 2 6 10 5 6 6 7 9 7 5 5 5 3 2 3 5 6 7 8 7 8 8 10 7 5 4 5 5 8 9 10 7
10 8 7 6 5 5 4 2 2 2 2 2 3 5 4 5 0 5 5 2 3 2 7 6 4 4 7 9 9 11 10 10 9 10 6 3 5 4 2 7 4 1 6 8 10 11 5 5 8 6 7 6 7 7
3 2 5 7 8 6 4 3 3 3 5 5 6 7 9 7 6 14 12 8 3 9 5 3 2 4 6 6 5 7 6 2 10 4 12 10 12 11 12 11 4 5 7 5 14 8 12 11 11 7 7 7 10 8
4 6 1 3 5 9 11 12 9 3 4 6 6 7 5 7 4 3 6 4 6 11 12 9 7 6 6 3 4 7 6 7 8 8 12 9 10 11 12 11 11 12 14 14 10 4 6 15 7 8 7 3 7 10
8 6 7 8 7 9 10 5 5 2 5 3 1 2 3 1 3 3 3 6 2 3 7 8 8 8 8 8 9 6 7 9 11 10 9 7 5 7 8 8 9 11 13 13 14 15 17 14 6 10 22 9 5 6
Wind_Direction
309 309 307 302 304 307 312 309 301 298 303 304 307 307 300 292 298 295 304 289 283 283 290 285 292 295 307 294 294 353 294 245 209 228 248 261 292 51 317 289 258 275 230 249 262 263 259 4 333 313 33 353 25 92
303 302 305 302 305 307 315 308 305 307 309 304 303 310 298 281 284 287 276 349 286 256 289 311 287 277 272 280 300 309 267 263 280 207 229 262 163 229 170 246 241 221 247 290 303 320 198 259 275 320 336 326 344 57
296 298 299 299 298 306 308 308 304 306 312 320 322 309 295 276 275 260 303 320 294 269 264 251 251 240 228 237 244 273 259 16 328 346 26 63 125 54 318 225 357 273 200 239 265 276 293 286 233 197 268 302 311 300
294 295 298 298 299 299 308 307 309 312 313 313 314 305 289 282 277 270 270 287 301 280 285 287 281 227 187 214 215 229 258 289 251 254 288 275 175 177 253 290 308 310 326 301 269 233 248 262 268 250 278 192 289 284
287 290 293 295 296 301 299 306 316 322 323 315 310 302 293 289 288 272 266 258 253 272 317 310 309 279 228 207 207 219 231 247 256 239 218 251 276 311 302 296 282 288 285 278 288 305 335 319 53 42 15 300 184 265
286 290 293 298 294 297 286 303 322 326 325 329 323 308 301 295 307 283 270 193 221 251 274 281 339 283 241 193 207 211 217 228 233 243 241 233 87 15 271 276 294 295 311 287 296 296 289 288 105 95 71 263 234 111
280 289 298 307 291 284 277 290 309 314 315 324 321 310 302 302 271 244 326 358 334 289 250 251 249 200 222 221 209 211 216 224 221 233 247 247 193 144 261 262 268 290 291 287 270 283 286 264 169 163 200 228 112 143
276 285 292 298 296 280 280 291 299 300 314 314 309 305 294 292 277 268 236 209 230 241 257 268 267 230 180 212 213 198 206 207 221 238 244 261 267 194 238 262 286 293 302 281 271 255 258 87 42 2 350 151 143 169
265 280 290 292 293 278 273 281 298 301 301 308 300 291 269 223 228 331 85 127 203 285 296 252 265 119 290 233 205 185 208 207 221 223 226 206 224 222 260 271 250 265 292 295 270 260 225 102 82 355 296 266 182 157
253 266 279 285 289 273 275 278 292 288 288 304 271 203 225 243 111 136 189 191 204 219 223 260 290 285 241 279 226 193 194 169 5 244 226 233 253 242 221 235 235 248 255 262 257 277 240 181 147 204 223 165 189 157
259 256 273 281 286 267 268 271 286 313 275 216 235 226 39 134 221 225 227 221 203 226 208 227 236 259 222 261 264 30 288 223 196 238 253 181 259 240 229 217 207 249 273 231 231 260 152 243 251 165 182 143 154 147
260 262 270 282 270 265 263 268 281 268 39 299 292 271 238 222 221 242 229 206 220 243 252 202 211 211 248 40 37 321 86 212 254 247 209 244 250 221 156 173 203 203 242 222 208 227 199 186 192 79 2 146 164 144
274 272 273 278 256 252 249 251 265 293 290 256 228 244 217 220 228 233 202 201 208 228 166 234 220 199 217 265 112 33 166 265 34 291 198 268 157 138 148 164 193 175 217 225 193 215 198 183 141 152 207 177 164 146
277 270 269 256 241 239 236 242 259 271 265 254 255 265 237 209 229 216 242 279 191 257 308 183 164 199 216 229 143 138 254 154 118 224 205 209 158 147 156 169 201 179 199 198 195 201 198 186 203 162 174 172 149 148
271 272 259 237 222 226 217 218 231 236 253 258 236 244 241 270 313 289 25 321 242 197 312 297 224 222 200 239 242 178 206 266 328 322 39 58 112 138 157 171 177 178 182 185 181 185 194 191 205 172 163 162 163 152
290 255 220 202 207 203 195 194 218 217 248 231 239 260 274 301 308 335 339 306 329 201 231 116 290 265 182 268 218 201 161 205 245 243 280 269 156 151 166 179 168 178 177 191 177 185 193 193 184 187 169 172 176 166
222 266 136 166 162 177 190 237 200 223 247 220 236 229 253 268 264 288 313 331 342 288 151 323 181 262 257 211 236 228 223 172 202 181 203 7 13 109 131 130 165 215 178 202 181 171 189 201 187 194 186 189 192 180
241 151 148 158 174 147 162 222 253 254 244 241 254 262 267 285 14 272 242 31 308 0 357 260 345 257 267 296 320 270 350 11 21 50 76 101 5 321 291 260 263 268 202 203 178 176 189 199 190 194 191 196 224 208
346 246 165 176 176 196 208 217 228 258 226 243 256 263 277 292 279 266 274 164 219 235 134 286 263 249 250 273 312 9 337 13 11 30 5 359 186 223 256 258 269 238 225 202 198 193 194 201 208 205 201 191 208 216
291 108 154 181 258 241 241 231 235 264 272 275 275 264 248 259 260 255 232 276 243 148 230 219 240 260 285 337 34 5 344 327 293 28 336 325 335 288 221 241 232 218 205 208 210 215 207 184 211 222 216 196 195 210
149 153 137 169 190 260 279 291 247 265 278 272 274 337 264 240 258 267 252 238 226 226 234 249 259 271 279 322 317 304 303 327 288 211 179 180 247 256 282 248 223 250 201 196 208 201 231 210 197 211 222 217 217 212
121 155 140 215 207 204 252 228 254 286 260 254 273 260 251 253 242 250 268 251 238 224 221 233 245 263 259 216 221 212 176 61 266 281 252 174 238 280 356 294 267 245 245 206 191 211 197 233 212 201 218 225 210 218
161 165 207 189 225 233 259 229 240 234 254 264 257 274 241 229 251 236 225 228 234 240 246 247 237 233 253 218 202 225 211 233 260 274 285 268 258 264 239 358 351 353 33 0 22 358 259 209 203 240 258 257 279 226
136 224 214 205 208 251 232 233 225 243 260 256 267 267 258 241 255 231 248 243 242 207 235 239 227 216 227 226 245 243 226 211 251 252 257 258 260 249 322 307 206 1 30 10 24 19 15 349 19 38 7 336 65 90
185 226 215 246 197 241 235 235 224 226 258 279 314 291 328 329 235 237 248 322 4 1 4 1 252 219 214 222 221 218 213 230 245 266 359 27 5 209 121 137 227 14 359 6 342 341 233 180 271 115 139 322 335 308
219 204 209 210 205 221 235 277 4 18 339 286 221 284 331 302 267 283 5 337 319 300 260 288 64 336 302 165 121 85 88 210 200 292 152 138 179 295 92 64 41 353 352 335 335 322 315 292 283 297 305 169 259 311
239 236 220 236 246 251 276 268 259 222 251 272 50 39 264 244 280 302 254 221 280 282 286 120 201 291 295 243 123 112 123 91 101 171 144 69 25 33 78 150 174 209 239 261 275 283 288 297 306 310 303 271 232 227
263 285 265 251 238 246 263 276 263 264 311 12 312 252 311 355 267 262 270 240 231 224 237 145 152 176 249 140 101 94 97 124 137 154 151 180 206 195 64 110 132 169 210 235 262 294 289 290 287 280 268 261 259 252
236 244 255 267 269 251 234 241 254 255 344 183 284 297 284 252 203 282 315 296 270 258 171 72 21 348 128 163 146 171 186 168 121 138 198 162 151 222 191 198 182 194 201 200 204 219 217 239 271 301 312 312 319 297
244 247 241 252 270 271 241 200 226 240 203 262 324 306 281 261 59 130 268 305 329 98 78 58 11 1 54 29 80 58 31 22 19 359 332 260 196 159 193 291 210 281 253 207 201 188 190 218 205 228 228 242 249 275
275 288 272 267 262 274 252 216 231 238 248 229 221 242 262 316 306 156 189 207 194 102 111 12 316 41 56 65 61 91 101 36 260 322 9 0 16 18 359 348 319 222 260 9 302 245 187 207 233 238 255 239 194 209
196 241 218 245 243 240 230 225 212 214 212 202 227 208 213 196 269 65 22 33 92 129 143 162 201 136 120 137 179 117 152 65 40 34 28 18 7 356 342 327 317 316 321 321 310 262 250 283 290 288 246 273 180 223
204 206 225 261 251 246 214 179 67 174 202 232 274 93 321 170 220 107 61 19 38 137 118 95 88 77 61 57 33 23 105 89 104 106 99 78 19 342 320 338 341 334 321 312 307 304 305 297 189 206 264 253 210 27